STARLINK-30037 (55712 NORAD) Tracking and Keplerian Element Data

This shows tracking and keplerian element data for the satellite.

Feedback or suggestion? Click here.




ElementValue
Catalog55712
NameSTARLINK-30037
Epoch Orbit513
Epoch Day85.16667824
Epoch Year2023
RAAN126.8985
Inclination43.0011
Eccentricity0.0001606
Argument of Perigee259.8747
Mean Anonmoly332.1349
Mean Motion15.66770702
Decay Rate0.0075987
L11 55712U 23026T 23085.16667824 .00759870 00000+0 63812-2 0 9998
L22 55712 43.0011 126.8985 0001606 259.8747 332.1349 15.66770702 5130



Live tracking and technical data element details for STARLINK-30037 (NORAD 55712). STARLINK-30037 can be tracked NOW for your location showing map with azimuth and elevation plus other details from your city location.







IsCatalogInMostPopularTable: catalog: 55712, numindb: 6
Update: records affected: 1



GetName: 55712 STARLINK-30037

Hit Count: updated at: Tue, 28 Mar 2023 02:23:59 GMT